TimeCDT,TemperatureF,Dew PointF,Humidity,Sea Level PressureIn,VisibilityMPH,Wind Direction,Wind SpeedMPH,Gust SpeedMPH,PrecipitationIn,Events,Conditions,WindDirDegrees,DateUTC
12:15 AM,46.4,41.0,81,30.17,10.0,NW,6.9,-,N/A,,Partly Cloudy,320,2012-10-08 05:15:00
12:35 AM,46.4,41.0,81,30.17,10.0,NNW,5.8,-,N/A,,Mostly Cloudy,340,2012-10-08 05:35:00
12:55 AM,44.6,42.8,93,30.17,6.0,North,6.9,-,N/A,,Overcast,10,2012-10-08 05:55:00
1:15 AM,44.6,42.8,93,30.17,6.0,North,5.8,-,N/A,,Mostly Cloudy,10,2012-10-08 06:15:00
1:35 AM,44.6,42.8,93,30.16,5.0,North,6.9,-,N/A,,Mostly Cloudy,10,2012-10-08 06:35:00
1:55 AM,44.6,42.8,93,30.16,6.0,NE,3.5,-,N/A,,Overcast,40,2012-10-08 06:55:00
2:15 AM,44.6,42.8,93,30.18,9.0,NW,3.5,-,N/A,,Overcast,320,2012-10-08 07:15:00
2:35 AM,44.6,42.8,93,30.17,6.0,North,4.6,-,N/A,,Overcast,350,2012-10-08 07:35:00
2:55 AM,44.6,42.8,93,30.15,10.0,NE,5.8,-,N/A,,Overcast,40,2012-10-08 07:55:00
3:15 AM,44.6,42.8,93,30.14,10.0,NE,5.8,-,N/A,,Mostly Cloudy,50,2012-10-08 08:15:00
3:35 AM,44.6,42.8,93,30.14,10.0,NE,3.5,-,N/A,,Overcast,50,2012-10-08 08:35:00
3:55 AM,44.6,42.8,93,30.15,10.0,North,4.6,-,N/A,,Overcast,10,2012-10-08 08:55:00
4:15 AM,44.6,42.8,93,30.17,10.0,North,5.8,-,N/A,,Overcast,350,2012-10-08 09:15:00
4:35 AM,44.6,42.8,93,30.17,10.0,North,5.8,-,N/A,,Overcast,350,2012-10-08 09:35:00
4:55 AM,44.6,42.8,93,30.16,9.0,NE,3.5,-,N/A,,Overcast,50,2012-10-08 09:55:00
5:15 AM,44.6,42.8,93,30.18,6.0,Calm,Calm,-,N/A,,Mostly Cloudy,0,2012-10-08 10:15:00
5:35 AM,44.6,42.8,93,30.17,7.0,North,4.6,-,N/A,,Mostly Cloudy,360,2012-10-08 10:35:00
5:55 AM,44.6,42.8,93,30.19,10.0,NNW,5.8,-,N/A,,Overcast,340,2012-10-08 10:55:00
6:15 AM,44.6,42.8,93,30.19,10.0,North,4.6,-,N/A,,Overcast,360,2012-10-08 11:15:00
6:35 AM,44.6,42.8,93,30.19,4.0,North,3.5,-,N/A,,Mostly Cloudy,10,2012-10-08 11:35:00
6:55 AM,44.6,42.8,93,30.21,5.0,Calm,Calm,-,N/A,,Overcast,0,2012-10-08 11:55:00
7:15 AM,44.6,42.8,93,30.20,4.0,Calm,Calm,-,N/A,,Overcast,0,2012-10-08 12:15:00
7:35 AM,44.6,42.8,93,30.19,7.0,ENE,4.6,-,N/A,,Mostly Cloudy,60,2012-10-08 12:35:00
7:55 AM,44.6,42.8,93,30.20,10.0,Calm,Calm,-,N/A,,Mostly Cloudy,0,2012-10-08 12:55:00
8:15 AM,44.6,42.8,93,30.22,10.0,Calm,Calm,-,N/A,,Mostly Cloudy,0,2012-10-08 13:15:00
8:35 AM,44.6,42.8,93,30.22,10.0,Calm,Calm,-,N/A,,Overcast,0,2012-10-08 13:35:00
8:55 AM,44.6,42.8,93,30.21,10.0,ENE,4.6,-,N/A,,Overcast,60,2012-10-08 13:55:00
9:15 AM,44.6,42.8,93,30.22,10.0,NE,3.5,-,N/A,,Overcast,40,2012-10-08 14:15:00
9:55 AM,46.4,44.6,93,30.22,10.0,NE,3.5,-,N/A,,Mostly Cloudy,40,2012-10-08 14:55:00
10:15 AM,46.4,44.6,93,30.21,10.0,NE,5.8,-,N/A,,Mostly Cloudy,40,2012-10-08 15:15:00
10:35 AM,46.4,42.8,87,30.21,10.0,NE,4.6,-,N/A,,Mostly Cloudy,40,2012-10-08 15:35:00
10:55 AM,48.2,42.8,82,30.21,10.0,NE,5.8,-,N/A,,Mostly Cloudy,50,2012-10-08 15:55:00
11:15 AM,48.2,44.6,87,30.21,10.0,East,4.6,-,N/A,,Overcast,80,2012-10-08 16:15:00
11:35 AM,48.2,44.6,87,30.21,10.0,East,4.6,-,N/A,,Overcast,100,2012-10-08 16:35:00
11:55 AM,50.0,44.6,82,30.21,10.0,East,5.8,-,N/A,,Mostly Cloudy,80,2012-10-08 16:55:00
12:15 PM,51.8,44.6,76,30.20,10.0,ENE,3.5,-,N/A,,Overcast,60,2012-10-08 17:15:00
12:35 PM,51.8,44.6,76,30.20,10.0,ENE,5.8,-,N/A,,Overcast,60,2012-10-08 17:35:00
12:55 PM,51.8,42.8,71,30.19,10.0,Variable,5.8,-,N/A,,Overcast,0,2012-10-08 17:55:00
1:15 PM,51.8,42.8,71,30.19,10.0,NE,4.6,-,N/A,,Overcast,50,2012-10-08 18:15:00
1:35 PM,51.8,42.8,71,30.18,10.0,NNE,6.9,-,N/A,,Overcast,30,2012-10-08 18:35:00
1:55 PM,51.8,42.8,71,30.18,10.0,NNE,3.5,-,N/A,,Overcast,30,2012-10-08 18:55:00
2:15 PM,51.8,42.8,71,30.17,10.0,North,5.8,-,N/A,,Overcast,10,2012-10-08 19:15:00
2:35 PM,51.8,42.8,71,30.17,10.0,North,5.8,-,N/A,,Overcast,10,2012-10-08 19:35:00
3:15 PM,51.8,44.6,76,30.15,10.0,ENE,4.6,-,N/A,,Overcast,60,2012-10-08 20:15:00
3:35 PM,53.6,42.8,67,30.15,10.0,NE,4.6,-,N/A,,Overcast,50,2012-10-08 20:35:00
3:55 PM,53.6,42.8,67,30.16,10.0,NNE,4.6,-,N/A,,Overcast,20,2012-10-08 20:55:00
4:15 PM,51.8,42.8,71,30.16,10.0,NE,3.5,-,N/A,,Overcast,40,2012-10-08 21:15:00
4:35 PM,53.6,42.8,67,30.15,10.0,Calm,Calm,-,N/A,,Overcast,0,2012-10-08 21:35:00
4:55 PM,51.8,42.8,71,30.15,10.0,NNE,5.8,-,N/A,,Overcast,20,2012-10-08 21:55:00
5:15 PM,51.8,42.8,71,30.15,10.0,NE,3.5,-,N/A,,Overcast,50,2012-10-08 22:15:00
5:35 PM,51.8,42.8,71,30.15,10.0,Calm,Calm,-,N/A,,Scattered Clouds,0,2012-10-08 22:35:00
5:55 PM,51.8,42.8,71,30.15,10.0,Calm,Calm,-,N/A,,Clear,0,2012-10-08 22:55:00
6:15 PM,48.2,44.6,87,30.15,10.0,Calm,Calm,-,N/A,,Clear,0,2012-10-08 23:15:00
6:35 PM,48.2,44.6,87,30.14,10.0,Calm,Calm,-,N/A,,Mostly Cloudy,0,2012-10-08 23:35:00
6:55 PM,48.2,44.6,87,30.15,10.0,Calm,Calm,-,N/A,,Overcast,0,2012-10-08 23:55:00
7:15 PM,48.2,44.6,87,30.15,10.0,Calm,Calm,-,N/A,,Scattered Clouds,0,2012-10-09 00:15:00
7:35 PM,46.4,44.6,93,30.15,10.0,Calm,Calm,-,N/A,,Clear,0,2012-10-09 00:35:00
8:15 PM,44.6,42.8,93,30.15,10.0,Calm,Calm,-,N/A,,Clear,0,2012-10-09 01:15:00
9:15 PM,41.0,39.2,93,30.17,0.8,Calm,Calm,-,N/A,,Unknown,0,2012-10-09 02:15:00
9:35 PM,39.2,37.4,93,30.17,8.0,Calm,Calm,-,N/A,,Clear,0,2012-10-09 02:35:00
9:55 PM,41.0,39.2,93,30.17,3.0,Calm,Calm,-,N/A,,Clear,0,2012-10-09 02:55:00
10:15 PM,39.2,37.4,93,30.17,1.2,Calm,Calm,-,N/A,,Clear,0,2012-10-09 03:15:00
10:35 PM,39.2,37.4,93,30.17,10.0,Calm,Calm,-,N/A,,Clear,0,2012-10-09 03:35:00
10:55 PM,39.2,37.4,93,30.17,10.0,Calm,Calm,-,N/A,,Clear,0,2012-10-09 03:55:00
11:35 PM,37.4,35.6,93,30.17,10.0,Calm,Calm,-,N/A,,Clear,0,2012-10-09 04:35:00
11:55 PM,37.4,35.6,93,30.16,10.0,Calm,Calm,-,N/A,,Clear,0,2012-10-09 04:55:00